TimeCST,TemperatureF,Dew PointF,Humidity,Sea Level PressureIn,VisibilityMPH,Wind Direction,Wind SpeedMPH,Gust SpeedMPH,PrecipitationIn,Events,Conditions,WindDirDegrees,DateUTC
12:53 AM,33.1,28.0,82,30.25,10.0,Calm,Calm,-,N/A,,Overcast,0,2012-11-04 05:53:00
1:53 AM,32.0,26.1,79,30.26,10.0,ESE,3.5,-,N/A,,Partly Cloudy,110,2012-11-04 06:53:00
1:53 AM,28.9,24.1,82,30.26,10.0,East,3.5,-,N/A,,Partly Cloudy,100,2012-11-04 07:53:00
2:53 AM,28.9,24.1,82,30.27,10.0,Calm,Calm,-,N/A,,Mostly Cloudy,0,2012-11-04 08:53:00
3:53 AM,28.0,24.1,85,30.26,10.0,East,3.5,-,N/A,,Partly Cloudy,100,2012-11-04 09:53:00
4:53 AM,28.0,25.0,88,30.26,10.0,Calm,Calm,-,N/A,,Overcast,0,2012-11-04 10:53:00
5:53 AM,30.0,26.1,85,30.26,10.0,Calm,Calm,-,N/A,,Overcast,0,2012-11-04 11:53:00
6:53 AM,30.0,26.1,85,30.25,10.0,East,3.5,-,N/A,,Overcast,80,2012-11-04 12:53:00
7:53 AM,30.0,27.0,88,30.26,10.0,East,4.6,-,N/A,,Overcast,100,2012-11-04 13:53:00
8:53 AM,30.9,27.0,85,30.25,10.0,ESE,3.5,-,N/A,,Overcast,110,2012-11-04 14:53:00
9:53 AM,32.0,27.0,82,30.25,10.0,East,6.9,-,N/A,,Overcast,100,2012-11-04 15:53:00
10:53 AM,34.0,26.1,73,30.24,10.0,East,6.9,-,N/A,,Overcast,100,2012-11-04 16:53:00
11:53 AM,35.1,26.1,70,30.23,10.0,ESE,6.9,-,N/A,,Overcast,110,2012-11-04 17:53:00
12:53 PM,36.0,26.1,67,30.22,10.0,ESE,5.8,-,N/A,,Overcast,110,2012-11-04 18:53:00
1:53 PM,36.0,25.0,64,30.21,10.0,East,5.8,-,N/A,,Overcast,100,2012-11-04 19:53:00
2:53 PM,37.0,25.0,62,30.21,10.0,East,6.9,-,N/A,,Overcast,90,2012-11-04 20:53:00
3:53 PM,37.0,25.0,62,30.21,10.0,East,3.5,-,N/A,,Overcast,100,2012-11-04 21:53:00
4:53 PM,37.0,25.0,62,30.21,10.0,Calm,Calm,-,N/A,,Overcast,0,2012-11-04 22:53:00
5:53 PM,37.0,26.1,65,30.22,10.0,Calm,Calm,-,N/A,,Overcast,0,2012-11-04 23:53:00
6:53 PM,36.0,26.1,67,30.23,10.0,Calm,Calm,-,N/A,,Overcast,0,2012-11-05 00:53:00
7:53 PM,36.0,26.1,67,30.23,10.0,NE,3.5,-,N/A,,Overcast,50,2012-11-05 01:53:00
8:53 PM,36.0,26.1,67,30.24,10.0,NE,3.5,-,N/A,,Overcast,50,2012-11-05 02:53:00
9:53 PM,35.1,25.0,67,30.24,10.0,NE,3.5,-,N/A,,Overcast,50,2012-11-05 03:53:00
10:53 PM,35.1,25.0,67,30.25,10.0,NE,3.5,-,N/A,,Overcast,40,2012-11-05 04:53:00